Location: Newark
(45.4422°N, 16.2769°E)
Time: 13:22:00
(UTC+00:00)

Vanguard 2 - Pass Details

Date: 12 December 2019
Orbit: 553 x 2938 km, 32.9° (Epoch: 19 January)

Event Time Altitude Azimuth Distance (km) Brightness Sun altitude
Rises 22:09:40 0° 207° (SSW) 5,199 - -66.3°
Reaches altitude 10° 22:13:24 10° 196° (SSW) 4,540 - -66.5°
Maximum altitude 22:24:07 29° 143° (SE) 3,949 - -67.1°
Drops below altitude 10° 22:37:28 10° 93° (E) 5,751 - -67.5°
Exits shadow 22:39:14 - 90° (E) 6,077 12.0 -67.6°
Sets 22:42:57 0° 84° (E) 6,790 12.4 -67.6°
